Location: Biltmore Gardens
(41.6070°N, 83.4666°W)
Time: 00:26:10
(UTC+00:00)

N. Korean satellite - Pass Details

Date: 12 March 2021
Orbit: 453 x 499 km, 97.2° (Epoch: 11 April)

Event Time Altitude Azimuth Distance (km) Brightness Sun altitude
Rises 10:47:11 0° 15° (NNE) 2,558 10.5 -12.6°
Reaches altitude 10° 10:49:16 10° 19° (NNE) 1,680 9.6 -12.2°
Maximum altitude 10:52:51 61° 100° (E) 565 7.2 -11.6°
Drops below altitude 10° 10:56:26 10° 182° (S) 1,687 9.2 -10.9°
Sets 10:58:32 0° 185° (S) 2,569 10.1 -10.5°
